Flag for France Weather past 2 weeks in Bordeaux, France

Now
66 °F

Clear.


Feels Like: 66 °F
Forecast: 60 / 84 °F
Wind: 3 mph from West

Location: Bordeaux / Merignac

Current Time: Jul 30, 2014 at 5:13:26 AM

Latest Report: Jul 30, 2014 at 5:00 AM


Visibility: N/A

Pressure: 30.04 "Hg

Humidity: 83%

Dew point: 61 °F

Location of BordeauxLocation

Historic Weather in Bordeaux — Graph

°F

Bordeaux temperature yesterday

Maximum temperature yesterday: 75 °F (at 3:00 PM)
Minimum temperature yesterday: 55 °F (at 6:30 AM)
Average temperature yesterday: 66 °F

Past Weeks' High & Low Weather Summary

 TemperatureHumidityPressure
High95 °F (Jul 17, 5:00 PM)100% (Jul 15, 6:00 AM)30.18 "Hg (Jul 15, 6:00 AM)
Low55 °F (Jul 15, 5:30 AM)32% (Jul 17, 3:30 PM)29.71 "Hg (Jul 18, 11:00 PM)
Average72 °F74%30.00 "Hg
* Reported Jul 15 3:00 AM — Jul 30 3:30 AM, Bordeaux, Weather by CustomWeather, © 2014

Note: Actual official high and low records may vary slightly from our data, if they occured in-between our weather recording intervals... More about our weather records

Advertising

Bordeaux weather history for previous 24 hours

 ConditionsComfort  
Time TempWeatherWind HumidityBarometerVisibility
3:30 AM
Jul 30
66 °FClear.5 mph83%30.04 "HgN/A
3:00 AM66 °FClear.5 mph83%30.07 "HgN/A
2:30 AM66 °FClear.5 mph83%30.07 "HgN/A
2:00 AM66 °FClear.5 mph83%30.07 "HgN/A
1:30 AM66 °FClear.5 mph78%30.07 "HgN/A
1:00 AM66 °FClear.5 mph78%30.07 "HgN/A
12:30 AM66 °FClear.6 mph78%30.07 "HgN/A
12:00 AM68 °FMostly cloudy.7 mph73%30.07 "HgN/A
11:30 PM
Jul 29
68 °FMostly cloudy.7 mph73%30.07 "HgN/A
11:00 PM68 °FClear.6 mph73%30.07 "HgN/A
10:30 PM68 °FClear.6 mph78%30.07 "HgN/A
10:00 PM68 °FClear.8 mph73%30.07 "HgN/A
9:30 PM70 °FMore clouds than sun.10 mph69%30.04 "HgN/A
9:00 PM70 °FClear.10 mph69%30.04 "HgN/A
8:30 PM70 °FMore clouds than sun.10 mph73%30.04 "HgN/A
8:00 PM70 °FBroken clouds.10 mph73%30.04 "HgN/A
7:30 PM70 °FBroken clouds.15 mph73%30.04 "HgN/A
7:00 PM70 °FOvercast.15 mph69%30.04 "HgN/A
6:30 PM70 °FClear.13 mph64%30.04 "HgN/A
6:00 PM70 °FOvercast.15 mph64%30.04 "HgN/A
5:30 PM72 °FPartly sunny.15 mph61%30.04 "HgN/A
5:00 PM73 °FBroken clouds.14 mph53%30.04 "HgN/A
4:30 PM73 °FPartly sunny.15 mph50%30.04 "HgN/A
4:00 PM73 °FClear.15 mph53%30.04 "HgN/A
3:30 PM73 °FOvercast.14 mph53%30.04 "HgN/A
3:00 PM75 °FPartly sunny.15 mph47%30.04 "HgN/A
2:30 PM72 °FPartly sunny.12 mph57%30.04 "HgN/A
2:00 PM73 °FPartly sunny.10 mph53%30.04 "HgN/A
1:30 PM73 °FBroken clouds.12 mph50%30.04 "HgN/A
1:00 PM73 °FPartly sunny.10 mph53%30.07 "HgN/A
12:30 PM72 °FScattered clouds.10 mph57%30.04 "HgN/A
12:00 PM70 °FScattered clouds.10 mph64%30.04 "HgN/A
11:30 AM70 °FScattered clouds.12 mph64%30.04 "HgN/A
11:00 AM66 °FPartly sunny.13 mph73%30.04 "HgN/A
10:30 AM66 °FPartly sunny.10 mph73%30.04 "HgN/A
10:00 AM66 °FPassing clouds.8 mph78%30.04 "HgN/A
9:30 AM63 °FClear.8 mph88%30.04 "HgN/A
9:00 AM61 °FPassing clouds.8 mph88%30.04 "HgN/A
8:30 AM61 °FClear.6 mph88%30.04 "HgN/A
8:00 AM59 °FClear.5 mph88%30.01 "HgN/A
7:30 AM57 °FClear.3 mph94%30.01 "HgN/A
7:00 AM55 °FLight fog.2 mph94%30.01 "HgN/A
6:30 AM55 °FClear.2 mph94%30.01 "HgN/A
6:00 AM57 °FLight fog.3 mph94%30.01 "HgN/A
5:30 AM57 °FClear.No wind94%30.01 "HgN/A
5:00 AM57 °FClear.1 mph94%30.01 "HgN/A
Weather by CustomWeather, © 2014

See weather overviewHow to use our weather pages